KC5DAQ-22 Weather Reports


time (UTC)temp
F
wind
direction
speed
knots
gust
knots
rain 1hr
in
rain 24hr
in
rain mn
in
humidity
%
barometer
mb
20260504040349 66 25 1.7 3.5 0.00 0.00 0.00 66 1016.6
20260504040248 66 28 1.7 3.5 0.00 0.00 0.00 66 1016.6
20260504040148 66 27 1.7 3.5 0.00 0.00 0.00 66 1016.6
20260504040045 66 25 1.7 3.5 0.00 0.00 0.00 66 1016.6
20260504035945 66 31 1.7 3.5 0.00 0.00 0.00 66 1016.5
20260504035842 66 30 0.9 3.5 0.00 0.00 0.00 66 1016.5
20260504035741 66 28 0.9 3.5 0.00 0.00 0.00 66 1016.5
20260504035639 66 28 0.9 3.5 0.00 0.00 0.00 66 1016.5
20260504035538 66 28 0.9 3.5 0.00 0.00 0.00 66 1016.5
20260504035438 67 25 0.9 3.5 0.00 0.00 0.00 66 1016.5
20260504035335 67 27 1.7 3.5 0.00 0.00 0.00 66 1016.5
20260504035231 67 27 1.7 3.5 0.00 0.00 0.00 65 1016.5
20260504035132 67 30 1.7 3.5 0.00 0.00 0.00 65 1016.5
20260504035030 67 28 1.7 3.5 0.00 0.00 0.00 65 1016.5
20260504034932 67 28 1.7 3.5 0.00 0.00 0.00 66 1016.5
20260504034832 67 25 1.7 3.5 0.00 0.00 0.00 66 1016.5
20260504034731 67 24 1.7 3.5 0.00 0.00 0.00 66 1016.6
20260504034631 67 31 1.7 3.5 0.00 0.00 0.00 66 1016.7
20260504034531 66 27 1.7 3.5 0.00 0.00 0.00 66 1016.7
20260504034431 66 28 1.7 3.5 0.00 0.00 0.00 66 1016.7
20260504034332 66 30 1.7 3.5 0.00 0.00 0.00 66 1016.7
20260504034231 66 27 0.9 3.5 0.00 0.00 0.00 66 1016.7
20260504034132 67 28 0.0 3.5 0.00 0.00 0.00 66 1016.6
20260504034031 67 27 0.0 3.5 0.00 0.00 0.00 66 1016.6
20260504033931 67 28 0.0 3.5 0.00 0.00 0.00 66 1016.6
20260504033832 67 27 0.0 3.5 0.00 0.00 0.00 66 1016.6
20260504033731 67 27 0.0 3.5 0.00 0.00 0.00 65 1016.6
20260504033631 67 27 0.9 3.5 0.00 0.00 0.00 65 1016.6
20260504033531 67 28 1.7 3.5 0.00 0.00 0.00 65 1016.6
20260504033431 67 25 1.7 3.5 0.00 0.00 0.00 65 1016.6
20260504033332 67 21 1.7 3.5 0.00 0.00 0.00 65 1016.6
20260504033232 67 27 1.7 3.5 0.00 0.00 0.00 65 1016.6
20260504033132 67 27 1.7 3.5 0.00 0.00 0.00 65 1016.6
20260504033031 67 30 1.7 3.5 0.00 0.00 0.00 65 1016.6
20260504032931 67 30 1.7 3.5 0.00 0.00 0.00 65 1016.6
20260504032830 67 31 1.7 3.5 0.00 0.00 0.00 65 1016.6
20260504032732 67 31 1.7 3.5 0.00 0.00 0.00 65 1016.6
20260504032630 67 30 1.7 3.5 0.00 0.00 0.00 65 1016.7
20260504032530 67 32 1.7 3.5 0.00 0.00 0.00 65 1016.6
20260504032427 67 138 1.7 3.5 0.00 0.00 0.00 65 1016.6
20260504032326 67 148 1.7 3.5 0.00 0.00 0.00 65 1016.6
20260504032221 67 141 0.9 3.5 0.00 0.00 0.00 65 1016.6
20260504032119 67 106 0.9 3.5 0.00 0.00 0.00 64 1016.6
20260504032018 67 100 0.9 3.5 0.00 0.00 0.00 64 1016.6
20260504031917 67 100 1.7 3.5 0.00 0.00 0.00 64 1016.6
20260504031818 67 166 0.9 3.5 0.00 0.00 0.00 64 1016.5
20260504031717 68 137 0.9 4.3 0.00 0.00 0.00 63 1016.6
20260504031616 68 142 1.7 4.3 0.00 0.00 0.00 63 1016.5
20260504031516 68 133 1.7 4.3 0.00 0.00 0.00 63 1016.5
20260504031417 68 159 0.9 4.3 0.00 0.00 0.00 62 1016.5
20260504031317 68 131 0.9 4.3 0.00 0.00 0.00 62 1016.5
20260504031216 68 96 1.7 4.3 0.00 0.00 0.00 62 1016.5
20260504031116 68 140 1.7 6.1 0.00 0.00 0.00 62 1016.5
20260504031017 68 148 0.9 6.1 0.00 0.00 0.00 62 1016.5
20260504030916 68 147 1.7 6.1 0.00 0.00 0.00 62 1016.5
20260504030816 68 178 2.6 6.1 0.00 0.00 0.00 62 1016.5
20260504030718 68 120 2.6 6.1 0.00 0.00 0.00 62 1016.5
20260504030617 68 195 1.7 6.1 0.00 0.00 0.00 62 1016.5
20260504030517 68 171 1.7 6.1 0.00 0.00 0.00 62 1016.5
20260504030417 68 158 2.6 6.1 0.00 0.00 0.00 62 1016.5
20260504030317 68 172 2.6 6.1 0.00 0.00 0.00 62 1016.6
20260504030216 68 168 3.5 6.1 0.00 0.00 0.00 62 1016.5
20260504030116 68 149 1.7 6.1 0.00 0.00 0.00 62 1016.6
20260504030017 68 111 1.7 6.1 0.00 0.00 0.00 62 1016.5
20260504025916 68 164 2.6 6.1 0.00 0.00 0.00 62 1016.5
20260504025818 68 171 1.7 6.1 0.00 0.00 0.00 62 1016.5
20260504025717 69 140 1.7 6.1 0.00 0.00 0.00 61 1016.4
20260504025616 69 144 2.6 6.1 0.00 0.00 0.00 61 1016.4
20260504025517 69 161 2.6 6.1 0.00 0.00 0.00 61 1016.3
20260504025416 69 118 2.6 6.1 0.00 0.00 0.00 61 1016.4
20260504025318 69 193 3.5 6.1 0.00 0.00 0.00 61 1016.4
20260504025216 69 183 3.5 6.1 0.00 0.00 0.00 61 1016.4
20260504025116 69 159 2.6 6.1 0.00 0.00 0.00 61 1016.4
20260504025016 69 149 2.6 6.1 0.00 0.00 0.00 61 1016.5
20260504024916 69 147 3.5 6.1 0.00 0.00 0.00 61 1016.5
20260504024815 69 164 3.5 6.1 0.00 0.00 0.00 61 1016.4
20260504024716 69 155 2.6 6.1 0.00 0.00 0.00 60 1016.4
20260504024617 69 159 1.7 6.1 0.00 0.00 0.00 60 1016.3
20260504024517 69 169 3.5 6.1 0.00 0.00 0.00 60 1016.4
20260504024416 69 169 3.5 6.1 0.00 0.00 0.00 60 1016.4
20260504024317 69 169 3.5 6.1 0.00 0.00 0.00 60 1016.4
20260504024215 69 200 3.5 7.8 0.00 0.00 0.00 60 1016.4
20260504024117 69 154 3.5 7.8 0.00 0.00 0.00 60 1016.4
20260504024018 69 116 3.5 7.8 0.00 0.00 0.00 59 1016.4
20260504023916 69 164 3.5 8.7 0.00 0.00 0.00 59 1016.5
20260504023816 69 168 2.6 8.7 0.00 0.00 0.00 59 1016.5
20260504023715 69 128 2.6 8.7 0.00 0.00 0.00 59 1016.5
20260504023616 69 140 3.5 8.7 0.00 0.00 0.00 59 1016.5
20260504023516 70 151 2.6 8.7 0.00 0.00 0.00 59 1016.4
20260504023417 70 159 3.5 8.7 0.00 0.00 0.00 59 1016.6
20260504023315 70 182 4.3 8.7 0.00 0.00 0.00 58 1016.4
20260504023217 70 193 3.5 8.7 0.00 0.00 0.00 58 1016.5
20260504023115 70 196 4.3 8.7 0.00 0.00 0.00 58 1016.5
20260504023015 70 186 3.5 8.7 0.00 0.00 0.00 58 1016.4
20260504022917 70 192 3.5 8.7 0.00 0.00 0.00 58 1016.5
20260504022817 70 168 4.3 8.7 0.00 0.00 0.00 58 1016.4
20260504022715 70 141 3.5 8.7 0.00 0.00 0.00 58 1016.4
20260504022616 70 151 4.3 8.7 0.00 0.00 0.00 58 1016.4
20260504022518 70 144 4.3 8.7 0.00 0.00 0.00 58 1016.4
20260504022417 70 199 4.3 8.7 0.00 0.00 0.00 58 1016.4
20260504022316 70 158 4.3 8.7 0.00 0.00 0.00 58 1016.4
20260504022216 70 148 4.3 8.7 0.00 0.00 0.00 58 1016.4
20260504022116 70 207 3.5 8.7 0.00 0.00 0.00 58 1016.3
20260504022015 70 169 3.5 8.7 0.00 0.00 0.00 58 1016.2
20260504021915 70 199 3.5 8.7 0.00 0.00 0.00 58 1016.2
20260504021817 70 155 4.3 13.0 0.00 0.00 0.00 58 1016.2
20260504021717 70 172 4.3 13.0 0.00 0.00 0.00 58 1016.2
20260504021615 70 165 3.5 13.0 0.00 0.00 0.00 58 1016.2
20260504021516 70 138 3.5 13.0 0.00 0.00 0.00 57 1016.3
20260504021416 70 107 4.3 13.0 0.00 0.00 0.00 57 1016.2
20260504021316 70 140 3.5 13.0 0.00 0.00 0.00 57 1016.2
20260504021217 70 137 2.6 13.0 0.00 0.00 0.00 57 1016.3
20260504021115 70 113 3.5 13.0 0.00 0.00 0.00 57 1016.3
20260504021015 70 168 4.3 13.0 0.00 0.00 0.00 57 1016.2
20260504020914 70 138 5.2 13.0 0.00 0.00 0.00 57 1016.2
20260504020816 70 133 4.3 11.3 0.00 0.00 0.00 57 1016.2
20260504020715 70 199 3.5 11.3 0.00 0.00 0.00 57 1016.2
20260504020615 70 148 4.3 11.3 0.00 0.00 0.00 56 1016.2
20260504020516 71 168 5.2 11.3 0.00 0.00 0.00 56 1016.2
20260504020416 71 124 5.2 11.3 0.00 0.00 0.00 56 1016.2
20260504020315 71 159 4.3 11.3 0.00 0.00 0.00 56 1016.1
20260504020215 71 92 5.2 11.3 0.00 0.00 0.00 56 1016.1
20260504020116 71 180 7.0 11.3 0.00 0.00 0.00 56 1016.1
20260504020017 71 140 6.1 11.3 0.00 0.00 0.00 56 1016.1
20260504015914 70 155 4.3 8.7 0.00 0.00 0.00 56 1016.1
20260504015814 71 157 4.3 7.8 0.00 0.00 0.00 56 1016.1
20260504015711 70 124 3.5 7.8 0.00 0.00 0.00 56 1016.1
20260504015609 71 161 2.6 7.8 0.00 0.00 0.00 57 1016.1
20260504015509 70 197 3.5 7.8 0.00 0.00 0.00 57 1016.2
20260504015407 71 144 3.5 7.8 0.00 0.00 0.00 56 1016.2
20260504015308 71 162 3.5 7.8 0.00 0.00 0.00 56 1016.1
20260504015206 71 130 2.6 7.8 0.00 0.00 0.00 56 1016.1
20260504015105 71 141 2.6 7.8 0.00 0.00 0.00 56 1016.2
20260504015004 71 175 2.6 7.8 0.00 0.00 0.00 56 1016.1
20260504014903 71 164 2.6 7.8 0.00 0.00 0.00 56 1016.2
20260504014802 71 130 3.5 6.1 0.00 0.00 0.00 56 1016.2
20260504014702 71 149 3.5 6.1 0.00 0.00 0.00 56 1016.1
20260504014603 71 157 2.6 7.8 0.00 0.00 0.00 56 1016.1
20260504014503 71 138 2.6 7.8 0.00 0.00 0.00 56 1016.1
20260504014402 71 159 2.6 7.8 0.00 0.00 0.00 56 1016.2
20260504014301 71 158 2.6 7.8 0.00 0.00 0.00 56 1016.1
20260504014203 71 176 2.6 7.8 0.00 0.00 0.00 55 1016.1
20260504014102 71 113 2.6 7.8 0.00 0.00 0.00 55 1016.1
20260504014002 71 192 3.5 7.8 0.00 0.00 0.00 55 1016.1
20260504013903 71 158 3.5 7.8 0.00 0.00 0.00 55 1016.1
20260504013802 71 140 3.5 7.8 0.00 0.00 0.00 55 1016.1
20260504013702 71 155 4.3 7.8 0.00 0.00 0.00 55 1016.0
20260504013602 71 173 4.3 7.8 0.00 0.00 0.00 55 1015.9
20260504013503 71 152 2.6 7.8 0.00 0.00 0.00 56 1016.0
20260504013403 71 142 1.7 7.8 0.00 0.00 0.00 55 1015.9
20260504013302 71 118 2.6 7.8 0.00 0.00 0.00 55 1015.9
20260504013202 71 141 2.6 7.8 0.00 0.00 0.00 55 1015.9
20260504013103 71 227 3.5 7.8 0.00 0.00 0.00 55 1015.8
20260504013002 71 147 3.5 7.8 0.00 0.00 0.00 55 1015.9
20260504012903 72 137 2.6 7.8 0.00 0.00 0.00 54 1015.9
20260504012802 72 148 3.5 7.8 0.00 0.00 0.00 54 1015.9
20260504012702 72 147 3.5 7.8 0.00 0.00 0.00 54 1015.8
20260504012603 72 172 2.6 7.8 0.00 0.00 0.00 54 1015.9
20260504012504 72 189 3.5 8.7 0.00 0.00 0.00 54 1015.8
20260504012402 72 195 3.5 8.7 0.00 0.00 0.00 54 1015.9
20260504012304 72 134 4.3 8.7 0.00 0.00 0.00 54 1015.8
20260504012204 72 168 4.3 8.7 0.00 0.00 0.00 54 1015.9
20260504012103 72 130 3.5 8.7 0.00 0.00 0.00 54 1015.9
20260504012004 72 169 3.5 8.7 0.00 0.00 0.00 54 1015.9
20260504011903 72 175 3.5 8.7 0.00 0.00 0.00 54 1015.8
20260504011803 72 83 2.6 9.6 0.00 0.00 0.00 54 1015.9
20260504011702 72 148 3.5 9.6 0.00 0.00 0.00 54 1015.8
20260504011603 72 159 3.5 9.6 0.00 0.00 0.00 54 1015.8
20260504011504 72 176 3.5 9.6 0.00 0.00 0.00 54 1015.9
20260504011402 72 206 2.6 9.6 0.00 0.00 0.00 54 1015.9
20260504011303 72 124 2.6 9.6 0.00 0.00 0.00 54 1015.9
20260504011203 72 172 2.6 9.6 0.00 0.00 0.00 54 1015.9
20260504011102 72 175 2.6 9.6 0.00 0.00 0.00 54 1015.9
20260504011003 72 199 4.3 9.6 0.00 0.00 0.00 54 1015.9
20260504010903 72 164 4.3 9.6 0.00 0.00 0.00 53 1015.8
20260504010804 72 171 3.5 8.7 0.00 0.00 0.00 54 1015.8
20260504010702 72 172 3.5 8.7 0.00 0.00 0.00 54 1015.8
20260504010602 72 152 2.6 8.7 0.00 0.00 0.00 53 1015.8
20260504010503 72 166 3.5 8.7 0.00 0.00 0.00 53 1015.7
20260504010402 72 147 3.5 8.7 0.00 0.00 0.00 53 1015.8
20260504010302 72 161 3.5 8.7 0.00 0.00 0.00 53 1015.8
20260504010202 72 166 2.6 8.7 0.00 0.00 0.00 53 1015.8
20260504010003 72 117 4.3 8.7 0.00 0.00 0.00 52 1015.8
20260504005904 72 145 3.5 8.7 0.00 0.00 0.00 53 1015.8
20260504005803 73 206 1.7 6.1 0.00 0.00 0.00 52 1015.9
20260504005702 73 107 1.7 6.1 0.00 0.00 0.00 52 1015.8
20260504005602 73 158 2.6 6.1 0.00 0.00 0.00 52 1015.9
20260504005504 73 141 2.6 6.1 0.00 0.00 0.00 52 1015.8
20260504005403 73 68 1.7 10.4 0.00 0.00 0.00 51 1015.8
20260504005304 73 121 1.7 10.4 0.00 0.00 0.00 52 1015.8
20260504005202 73 92 1.7 10.4 0.00 0.00 0.00 52 1015.9
20260504005104 73 134 3.5 10.4 0.00 0.00 0.00 51 1015.8
20260504005002 73 99 4.3 10.4 0.00 0.00 0.00 51 1015.8
20260504004903 73 76 4.3 10.4 0.00 0.00 0.00 51 1015.8
20260504004803 73 140 3.5 10.4 0.00 0.00 0.00 51 1015.7
20260504004703 73 113 3.5 10.4 0.00 0.00 0.00 51 1015.7
20260504004603 74 131 5.2 10.4 0.00 0.00 0.00 51 1015.8
20260504004502 74 117 7.8 10.4 0.00 0.00 0.00 51 1015.8
20260504004403 74 111 7.0 10.4 0.00 0.00 0.00 51 1015.8
20260504004303 74 110 5.2 10.4 0.00 0.00 0.00 51 1015.8
20260504004202 74 123 5.2 8.7 0.00 0.00 0.00 51 1015.8
20260504004103 74 39 4.3 8.7 0.00 0.00 0.00 51 1015.9
20260504004003 74 35 4.3 8.7 0.00 0.00 0.00 51 1015.8
20260504003902 74 45 5.2 9.6 0.00 0.00 0.00 51 1015.9
20260504003803 74 55 6.1 9.6 0.00 0.00 0.00 51 1015.9
20260504003703 74 58 6.1 9.6 0.00 0.00 0.00 51 1015.9
20260504003603 74 59 5.2 9.6 0.00 0.00 0.00 50 1015.9
20260504003503 74 66 5.2 9.6 0.00 0.00 0.00 50 1015.9
20260504003403 74 100 6.1 9.6 0.00 0.00 0.00 50 1015.9
20260504003302 74 72 6.1 9.6 0.00 0.00 0.00 50 1015.9
20260504003203 74 55 6.1 9.6 0.00 0.00 0.00 50 1015.9
20260504003103 74 76 6.1 9.6 0.00 0.00 0.00 50 1015.9
20260504003003 74 71 6.1 9.6 0.00 0.00 0.00 50 1015.9
20260504002902 74 73 6.1 9.6 0.00 0.00 0.00 50 1015.8
20260504002802 74 75 5.2 9.6 0.00 0.00 0.00 50 1015.9
20260504002704 74 80 5.2 9.6 0.00 0.00 0.00 50 1015.9
20260504002602 74 73 5.2 9.6 0.00 0.00 0.00 50 1015.8
20260504002503 74 47 3.5 9.6 0.00 0.00 0.00 49 1015.8
20260504002403 75 48 4.3 9.6 0.00 0.00 0.00 49 1015.7
20260504002303 75 79 6.1 9.6 0.00 0.00 0.00 49 1015.7
20260504002203 75 59 5.2 9.6 0.00 0.00 0.00 49 1015.7
20260504002103 75 55 5.2 9.6 0.00 0.00 0.00 49 1015.7
20260504002002 75 133 7.0 10.4 0.00 0.00 0.00 48 1015.7
20260504001902 75 103 7.0 11.3 0.00 0.00 0.00 48 1015.8
20260504001801 75 102 7.0 11.3 0.00 0.00 0.00 48 1015.7
20260504001703 75 97 6.1 11.3 0.00 0.00 0.00 48 1015.8
20260504001602 75 113 6.1 11.3 0.00 0.00 0.00 48 1015.8
20260504001503 75 97 6.1 11.3 0.00 0.00 0.00 48 1015.9
20260504001403 75 117 6.1 11.3 0.00 0.00 0.00 48 1015.9
20260504001303 75 111 6.1 11.3 0.00 0.00 0.00 48 1015.8
20260504001203 75 97 7.0 11.3 0.00 0.00 0.00 48 1015.8
20260504001102 75 106 7.8 12.2 0.00 0.00 0.00 47 1015.8
20260504001004 76 93 7.8 12.2 0.00 0.00 0.00 47 1015.7
20260504000902 76 96 7.0 12.2 0.00 0.00 0.00 47 1015.9
20260504000802 76 93 7.0 12.2 0.00 0.00 0.00 47 1015.9
20260504000704 76 100 6.1 12.2 0.00 0.00 0.00 47 1015.9
20260504000603 76 109 7.0 12.2 0.00 0.00 0.00 47 1015.9
20260504000504 76 96 7.8 12.2 0.00 0.00 0.00 47 1016.0
20260504000403 76 100 7.8 12.2 0.00 0.00 0.00 47 1015.9
20260504000303 76 110 8.7 12.2 0.00 0.00 0.00 47 1016.0
20260504000201 76 86 8.7 12.2 0.00 0.00 0.00 47 1015.9
20260504000005 76 113 6.1 12.2 0.00 0.00 0.00 47 1016.0
20260503235902 76 117 7.0 12.2 0.00 0.00 0.00 46 1015.9
20260503235801 76 123 7.0 12.2 0.00 0.00 0.00 47 1015.9
20260503235703 76 116 7.0 12.2 0.00 0.00 0.00 46 1016.0
20260503235603 76 106 7.0 12.2 0.00 0.00 0.00 46 1016.0
20260503235502 76 89 6.1 11.3 0.00 0.00 0.00 46 1015.9
20260503235403 77 80 5.2 11.3 0.00 0.00 0.00 46 1015.9
20260503235304 77 86 5.2 11.3 0.00 0.00 0.00 46 1016.0
20260503235202 77 109 4.3 11.3 0.00 0.00 0.00 46 1015.9
20260503235103 77 73 5.2 11.3 0.00 0.00 0.00 46 1015.9
20260503235005 77 141 5.2 11.3 0.00 0.00 0.00 47 1015.9
20260503234902 77 82 4.3 11.3 0.00 0.00 0.00 46 1016.0
20260503234802 76 103 6.1 11.3 0.00 0.00 0.00 46 1015.9
20260503234702 77 123 7.0 11.3 0.00 0.00 0.00 46 1016.0
20260503234603 77 103 7.0 11.3 0.00 0.00 0.00 46 1015.9
20260503234502 77 104 7.8 11.3 0.00 0.00 0.00 46 1016.0
20260503234402 77 99 6.1 10.4 0.00 0.00 0.00 46 1016.0
20260503234303 77 111 4.3 10.4 0.00 0.00 0.00 46 1016.0
20260503234202 77 152 3.5 10.4 0.00 0.00 0.00 46 1016.1
20260503234102 77 94 3.5 10.4 0.00 0.00 0.00 46 1016.0
20260503234002 77 124 5.2 10.4 0.00 0.00 0.00 46 1016.0
20260503233902 77 141 6.1 10.4 0.00 0.00 0.00 45 1016.0
20260503233802 77 104 6.1 10.4 0.00 0.00 0.00 45 1016.1
20260503233702 77 85 7.0 10.4 0.00 0.00 0.00 45 1016.0
20260503233602 77 96 7.8 13.0 0.00 0.00 0.00 45 1016.0
20260503233504 77 92 6.1 13.0 0.00 0.00 0.00 45 1016.1
20260503233402 77 102 5.2 13.0 0.00 0.00 0.00 45 1016.1
20260503233302 77 120 5.2 13.0 0.00 0.00 0.00 43 1016.1
20260503233203 77 107 5.2 13.0 0.00 0.00 0.00 43 1016.0
20260503233102 77 110 5.2 13.0 0.00 0.00 0.00 43 1016.0
20260503233002 77 85 5.2 13.0 0.00 0.00 0.00 43 1016.1
20260503232903 77 96 5.2 13.0 0.00 0.00 0.00 43 1016.1
20260503232802 77 78 7.0 13.0 0.00 0.00 0.00 43 1016.1
20260503232702 77 106 7.8 13.0 0.00 0.00 0.00 43 1016.1
20260503232603 77 94 6.1 9.6 0.00 0.00 0.00 44 1016.2
20260503232502 77 87 6.1 9.6 0.00 0.00 0.00 43 1016.1
20260503232402 78 93 6.1 9.6 0.00 0.00 0.00 43 1016.1
20260503232305 78 102 5.2 8.7 0.00 0.00 0.00 43 1016.1
20260503232204 78 80 5.2 8.7 0.00 0.00 0.00 43 1016.1
20260503232101 78 97 5.2 8.7 0.00 0.00 0.00 43 1016.1
20260503231959 78 109 4.3 8.7 0.00 0.00 0.00 44 1016.2
20260503231858 78 113 3.5 8.7 0.00 0.00 0.00 44 1016.0
20260503231756 78 152 2.6 8.7 0.00 0.00 0.00 44 1016.1
20260503231655 78 99 2.6 9.6 0.00 0.00 0.00 44 1016.0
20260503231555 78 200 3.5 9.6 0.00 0.00 0.00 43 1016.1
20260503231451 78 111 5.2 9.6 0.00 0.00 0.00 42 1016.0
20260503231350 78 117 4.3 9.6 0.00 0.00 0.00 43 1016.0
20260503231249 78 106 3.5 9.6 0.00 0.00 0.00 44 1016.1
20260503231148 78 164 3.5 9.6 0.00 0.00 0.00 43 1016.1
20260503231047 78 180 3.5 9.6 0.00 0.00 0.00 43 1016.1
20260503230945 78 103 4.3 9.6 0.00 0.00 0.00 43 1016.1
20260503230843 78 158 4.3 9.6 0.00 0.00 0.00 43 1016.1
20260503230741 78 202 5.2 9.6 0.00 0.00 0.00 44 1016.1
20260503230640 78 102 5.2 8.7 0.00 0.00 0.00 43 1016.1
20260503230538 78 94 4.3 8.7 0.00 0.00 0.00 43 1016.1
20260503230438 78 106 3.5 8.7 0.00 0.00 0.00 43 1016.2
20260503230332 77 106 4.3 8.7 0.00 0.00 0.00 42 1016.2
20260503230231 77 110 6.1 8.7 0.00 0.00 0.00 42 1016.2
20260503230131 77 114 7.0 8.7 0.00 0.00 0.00 42 1016.2
20260503230032 77 114 6.1 10.4 0.00 0.00 0.00 42 1016.2
20260503225931 77 90 5.2 10.4 0.00 0.00 0.00 42 1016.2
20260503225831 78 114 5.2 10.4 0.00 0.00 0.00 43 1016.3
20260503225732 78 90 4.3 10.4 0.00 0.00 0.00 43 1016.2
20260503225631 78 180 2.6 10.4 0.00 0.00 0.00 43 1016.2
20260503225531 78 111 3.5 11.3 0.00 0.00 0.00 43 1016.3
20260503225433 77 114 3.5 11.3 0.00 0.00 0.00 43 1016.3
20260503225332 77 117 5.2 11.3 0.00 0.00 0.00 43 1016.2
20260503225231 77 142 6.1 11.3 0.00 0.00 0.00 43 1016.2
20260503225131 78 116 6.1 11.3 0.00 0.00 0.00 43 1016.2
20260503225031 78 93 6.1 11.3 0.00 0.00 0.00 44 1016.2
20260503224933 78 102 6.1 11.3 0.00 0.00 0.00 43 1016.2
20260503224830 78 110 7.0 11.3 0.00 0.00 0.00 42 1016.2
20260503224732 78 111 8.7 12.2 0.00 0.00 0.00 42 1016.2
20260503224632 78 124 9.6 12.2 0.00 0.00 0.00 42 1016.3
20260503224532 79 128 8.7 12.2 0.00 0.00 0.00 42 1016.3
20260503224432 79 102 7.0 12.2 0.00 0.00 0.00 42 1016.2
20260503224332 79 97 4.3 12.2 0.00 0.00 0.00 43 1016.2
20260503224230 79 135 3.5 12.2 0.00 0.00 0.00 44 1016.1
20260503224131 78 71 5.2 12.2 0.00 0.00 0.00 43 1016.2
20260503224031 78 93 7.0 12.2 0.00 0.00 0.00 42 1016.2
20260503223931 78 89 7.8 12.2 0.00 0.00 0.00 42 1016.3
20260503223831 78 102 7.0 12.2 0.00 0.00 0.00 43 1016.3
20260503223732 78 109 6.1 9.6 0.00 0.00 0.00 42 1016.3
20260503223632 79 118 5.2 9.6 0.00 0.00 0.00 41 1016.4
20260503223532 79 111 3.5 7.8 0.00 0.00 0.00 41 1016.4
20260503223431 79 123 4.3 7.8 0.00 0.00 0.00 41 1016.4
20260503223331 79 117 5.2 7.8 0.00 0.00 0.00 42 1016.4
20260503223231 78 97 5.2 7.8 0.00 0.00 0.00 42 1016.4
20260503223132 78 92 5.2 7.8 0.00 0.00 0.00 41 1016.3
20260503223032 78 124 5.2 7.8 0.00 0.00 0.00 41 1016.4
20260503222932 78 76 5.2 7.8 0.00 0.00 0.00 41 1016.3
20260503222831 78 89 5.2 7.8 0.00 0.00 0.00 42 1016.4
20260503222732 78 103 4.3 7.8 0.00 0.00 0.00 42 1016.5
20260503222631 78 89 4.3 8.7 0.00 0.00 0.00 40 1016.5
20260503222530 78 99 5.2 8.7 0.00 0.00 0.00 40 1016.6
20260503222430 78 92 5.2 9.6 0.00 0.00 0.00 40 1016.6
20260503222333 78 83 5.2 9.6 0.00 0.00 0.00 41 1016.6
20260503222230 78 114 4.3 9.6 0.00 0.00 0.00 41 1016.6
20260503222130 78 71 2.6 9.6 0.00 0.00 0.00 41 1016.7
20260503222032 78 113 2.6 9.6 0.00 0.00 0.00 41 1016.7
20260503221932 78 107 3.5 9.6 0.00 0.00 0.00 40 1016.7
20260503221831 78 99 5.2 9.6 0.00 0.00 0.00 40 1016.7
20260503221731 78 100 7.0 9.6 0.00 0.00 0.00 39 1016.6
20260503221633 79 99 7.8 9.6 0.00 0.00 0.00 39 1016.6
20260503221532 79 114 7.0 9.6 0.00 0.00 0.00 40 1016.7
20260503221431 79 94 5.2 9.6 0.00 0.00 0.00 40 1016.7
20260503221334 79 65 2.6 9.6 0.00 0.00 0.00 40 1016.7
20260503221231 79 52 2.6 9.6 0.00 0.00 0.00 39 1016.7
20260503221129 79 52 4.3 9.6 0.00 0.00 0.00 39 1016.7
20260503221026 80 80 5.2 9.6 0.00 0.00 0.00 39 1016.7
20260503220926 80 106 6.1 9.6 0.00 0.00 0.00 40 1016.6
20260503220826 80 109 4.3 9.6 0.00 0.00 0.00 40 1016.6
20260503220723 80 94 0.9 4.3 0.00 0.00 0.00 39 1016.6
20260503220622 80 58 0.9 5.2 0.00 0.00 0.00 38 1016.5
20260503220521 80 58 0.9 6.1 0.00 0.00 0.00 38 1016.5
20260503220418 80 20 0.9 6.1 0.00 0.00 0.00 38 1016.6
20260503220318 80 20 1.7 6.1 0.00 0.00 0.00 38 1016.6
20260503220216 80 62 1.7 6.1 0.00 0.00 0.00 38 1016.6
20260503220110 81 75 1.7 7.8 0.00 0.00 0.00 38 1016.6
20260503220012 81 72 1.7 8.7 0.00 0.00 0.00 38 1016.7
20260503215910 81 96 2.6 8.7 0.00 0.00 0.00 39 1016.7
20260503215810 80 200 2.6 8.7 0.00 0.00 0.00 39 1016.6
20260503215709 81 147 3.5 8.7 0.00 0.00 0.00 39 1016.6
20260503215610 80 172 3.5 8.7 0.00 0.00 0.00 39 1016.6
20260503215510 80 125 3.5 8.7 0.00 0.00 0.00 39 1016.6
20260503215410 81 125 2.6 8.7 0.00 0.00 0.00 39 1016.5
20260503215309 81 114 3.5 8.7 0.00 0.00 0.00 39 1016.6
20260503215209 81 178 4.3 8.7 0.00 0.00 0.00 39 1016.6
20260503215112 80 203 2.6 8.7 0.00 0.00 0.00 39 1016.5
20260503215010 80 124 1.7 6.1 0.00 0.00 0.00 39 1016.6
20260503214908 79 121 1.7 6.1 0.00 0.00 0.00 39 1016.6
20260503214811 79 39 1.7 6.1 0.00 0.00 0.00 39 1016.6
20260503214709 79 39 2.6 6.1 0.00 0.00 0.00 39 1016.6
20260503214609 79 32 2.6 6.1 0.00 0.00 0.00 40 1016.6
20260503214510 79 51 3.5 6.1 0.00 0.00 0.00 39 1016.6
20260503214410 79 51 4.3 6.1 0.00 0.00 0.00 40 1016.7
20260503214308 79 42 4.3 8.7 0.00 0.00 0.00 40 1016.7
20260503214209 78 96 3.5 9.6 0.00 0.00 0.00 40 1016.8
20260503214110 78 52 4.3 9.6 0.00 0.00 0.00 41 1016.8
20260503214010 78 44 3.5 9.6 0.00 0.00 0.00 40 1016.8
20260503213910 78 35 0.9 9.6 0.00 0.00 0.00 39 1016.9
20260503213810 78 14 1.7 9.6 0.00 0.00 0.00 39 1016.9
20260503213711 78 14 3.5 9.6 0.00 0.00 0.00 39 1016.9
20260503213608 78 16 4.3 9.6 0.00 0.00 0.00 39 1016.9
20260503213508 79 45 5.2 9.6 0.00 0.00 0.00 40 1017.0
20260503213411 79 65 7.0 9.6 0.00 0.00 0.00 40 1017.0
20260503213309 79 54 6.1 9.6 0.00 0.00 0.00 41 1017.0
20260503213209 79 45 5.2 8.7 0.00 0.00 0.00 40 1017.1
20260503213108 79 44 5.2 7.8 0.00 0.00 0.00 40 1017.1
20260503213010 79 86 4.3 7.8 0.00 0.00 0.00 40 1017.2
20260503212908 79 58 4.3 7.8 0.00 0.00 0.00 40 1017.2
20260503212808 80 52 4.3 7.8 0.00 0.00 0.00 39 1017.1
20260503212710 80 56 4.3 7.8 0.00 0.00 0.00 39 1017.1
20260503212609 80 55 3.5 7.8 0.00 0.00 0.00 39 1017.1
20260503212510 80 45 4.3 7.8 0.00 0.00 0.00 38 1017.1
20260503212409 80 32 3.5 8.7 0.00 0.00 0.00 38 1017.1
20260503212310 80 41 3.5 11.3 0.00 0.00 0.00 40 1017.2
20260503212209 80 85 5.2 11.3 0.00 0.00 0.00 39 1017.2
20260503212108 80 97 4.3 11.3 0.00 0.00 0.00 40 1017.2
20260503212009 80 89 2.6 11.3 0.00 0.00 0.00 39 1017.2
20260503211908 80 93 3.5 11.3 0.00 0.00 0.00 39 1017.2
20260503211808 80 72 3.5 11.3 0.00 0.00 0.00 39 1017.3
20260503211710 80 73 4.3 11.3 0.00 0.00 0.00 39 1017.2
20260503211609 80 80 5.2 11.3 0.00 0.00 0.00 38 1017.3
20260503211508 80 90 7.8 11.3 0.00 0.00 0.00 38 1017.3
20260503211408 80 89 7.8 11.3 0.00 0.00 0.00 39 1017.3
20260503211310 80 93 6.1 11.3 0.00 0.00 0.00 39 1017.3
20260503211208 80 56 6.1 11.3 0.00 0.00 0.00 39 1017.2
20260503211108 80 39 6.1 11.3 0.00 0.00 0.00 39 1017.3
20260503211009 80 103 6.1 9.6 0.00 0.00 0.00 39 1017.3
20260503210909 80 89 3.5 9.6 0.00 0.00 0.00 40 1017.2
20260503210809 80 62 2.6 9.6 0.00 0.00 0.00 40 1017.3
20260503210707 80 118 2.6 9.6 0.00 0.00 0.00 39 1017.3
20260503210606 80 61 2.6 9.6 0.00 0.00 0.00 39 1017.4
20260503210503 80 82 3.5 9.6 0.00 0.00 0.00 39 1017.3
20260503210403 80 103 5.2 9.6 0.00 0.00 0.00 39 1017.3
20260503210304 80 109 6.1 9.6 0.00 0.00 0.00 37 1017.4
20260503210204 81 110 6.1 9.6 0.00 0.00 0.00 38 1017.4
20260503210103 81 83 5.2 6.1 0.00 0.00 0.00 38 1017.4
20260503210003 81 90 3.5 5.2 0.00 0.00 0.00 37 1017.4
20260503205903 81 54 1.7 4.3 0.00 0.00 0.00 38 1017.4
20260503205802 81 69 1.7 7.8 0.00 0.00 0.00 37 1017.4
20260503205703 81 32 2.6 7.8 0.00 0.00 0.00 37 1017.5
20260503205603 81 49 1.7 7.8 0.00 0.00 0.00 37 1017.3
20260503205504 81 71 0.0 7.8 0.00 0.00 0.00 37 1017.4
20260503205402 80 275 0.9 7.8 0.00 0.00 0.00 37 1017.4
20260503205304 81 230 1.7 7.8 0.00 0.00 0.00 36 1017.5
20260503205204 81 123 1.7 7.8 0.00 0.00 0.00 36 1017.5
20260503205102 82 162 2.6 7.8 0.00 0.00 0.00 36 1017.5
20260503205005 82 195 3.5 7.8 0.00 0.00 0.00 36 1017.5
20260503204902 82 202 2.6 7.8 0.00 0.00 0.00 36 1017.6
20260503204803 82 176 0.9 6.1 0.00 0.00 0.00 37 1017.6
20260503204702 82 104 0.0 6.1 0.00 0.00 0.00 38 1017.7
20260503204602 81 183 0.0 6.1 0.00 0.00 0.00 38 1017.6
20260503204504 80 185 0.9 6.1 0.00 0.00 0.00 37 1017.6
20260503204402 80 185 2.6 6.1 0.00 0.00 0.00 37 1017.7
20260503204302 80 281 3.5 7.8 0.00 0.00 0.00 38 1017.7
20260503204204 80 244 3.5 8.7 0.00 0.00 0.00 38 1017.6
20260503204103 80 244 3.5 11.3 0.00 0.00 0.00 38 1017.7
20260503204003 81 216 3.5 11.3 0.00 0.00 0.00 37 1017.7
20260503203901 81 182 3.5 11.3 0.00 0.00 0.00 38 1017.7
20260503203802 81 188 2.6 11.3 0.00 0.00 0.00 38 1017.8
20260503203702 81 223 2.6 11.3 0.00 0.00 0.00 38 1017.8
20260503203602 81 127 3.5 11.3 0.00 0.00 0.00 38 1017.8
20260503203504 81 223 4.3 11.3 0.00 0.00 0.00 38 1017.9
20260503203403 81 133 5.2 11.3 0.00 0.00 0.00 37 1017.9
20260503203302 81 195 5.2 11.3 0.00 0.00 0.00 38 1017.8
20260503203203 81 134 3.5 11.3 0.00 0.00 0.00 39 1017.8
20260503203103 80 117 2.6 9.6 0.00 0.00 0.00 39 1017.8
20260503203002 81 109 2.6 9.6 0.00 0.00 0.00 37 1017.9
20260503202902 81 127 3.5 10.4 0.00 0.00 0.00 39 1017.9
20260503202803 81 133 3.5 10.4 0.00 0.00 0.00 38 1017.9
20260503202702 82 94 2.6 10.4 0.00 0.00 0.00 39 1018.0
20260503202602 81 92 3.5 10.4 0.00 0.00 0.00 38 1018.0
20260503202503 81 58 5.2 10.4 0.00 0.00 0.00 38 1017.9
20260503202402 80 51 7.0 10.4 0.00 0.00 0.00 38 1018.0
20260503202304 80 73 6.1 10.4 0.00 0.00 0.00 39 1018.0
20260503202202 81 111 6.1 10.4 0.00 0.00 0.00 38 1018.0
20260503202103 81 102 7.0 10.4 0.00 0.00 0.00 38 1018.0
20260503202001 81 123 3.5 10.4 0.00 0.00 0.00 39 1018.0
20260503201902 81 78 0.9 5.2 0.00 0.00 0.00 37 1018.0
20260503201803 80 145 0.9 7.8 0.00 0.00 0.00 37 1018.0
20260503201703 80 326 1.7 7.8 0.00 0.00 0.00 37 1018.0
20260503201603 80 300 0.9 7.8 0.00 0.00 0.00 37 1018.1
20260503201504 80 72 0.9 7.8 0.00 0.00 0.00 37 1018.1
20260503201402 80 103 2.6 7.8 0.00 0.00 0.00 38 1018.2
20260503201302 80 103 3.5 8.7 0.00 0.00 0.00 39 1018.2
20260503201202 80 113 1.7 8.7 0.00 0.00 0.00 38 1018.2
20260503201103 80 79 1.7 8.7 0.00 0.00 0.00 38 1018.3
20260503201003 80 97 3.5 8.7 0.00 0.00 0.00 38 1018.3
20260503200902 80 96 4.3 9.6 0.00 0.00 0.00 37 1018.3
20260503200803 80 94 1.7 9.6 0.00 0.00 0.00 38 1018.3
20260503200702 80 103 0.9 11.3 0.00 0.00 0.00 38 1018.3
20260503200602 80 244 2.6 11.3 0.00 0.00 0.00 39 1018.4
20260503200502 79 103 4.3 11.3 0.00 0.00 0.00 40 1018.4
20260503200404 79 102 4.3 11.3 0.00 0.00 0.00 39 1018.4
20260503200302 79 96 3.5 13.0 0.00 0.00 0.00 40 1018.4
20260503200203 79 107 4.3 13.0 0.00 0.00 0.00 39 1018.5
20260503200003 79 110 7.0 13.0 0.00 0.00 0.00 39 1018.4
20260503195902 80 99 7.8 13.0 0.00 0.00 0.00 38 1018.4
20260503195802 80 113 7.0 13.0 0.00 0.00 0.00 38 1018.4
20260503195702 80 104 5.2 13.0 0.00 0.00 0.00 40 1018.5
20260503195602 80 118 5.2 13.0 0.00 0.00 0.00 39 1018.5
20260503195502 80 90 6.1 13.0 0.00 0.00 0.00 37 1018.5
20260503195403 81 102 7.8 13.0 0.00 0.00 0.00 38 1018.5
20260503195304 81 99 6.1 13.0 0.00 0.00 0.00 38 1018.6
20260503195202 81 96 5.2 9.6 0.00 0.00 0.00 39 1018.5
20260503195103 81 99 4.3 8.7 0.00 0.00 0.00 38 1018.5
20260503195005 81 65 3.5 8.7 0.00 0.00 0.00 39 1018.5
20260503194902 81 100 2.6 8.7 0.00 0.00 0.00 38 1018.5
20260503194802 81 155 1.7 8.7 0.00 0.00 0.00 37 1018.5
20260503194703 81 209 1.7 8.7 0.00 0.00 0.00 40 1018.5
20260503194602 81 100 1.7 8.7 0.00 0.00 0.00 38 1018.6
20260503194503 81 97 3.5 8.7 0.00 0.00 0.00 37 1018.6
20260503194403 82 135 3.5 8.7 0.00 0.00 0.00 38 1018.6
20260503194302 82 149 2.6 8.7 0.00 0.00 0.00 39 1018.6
20260503194202 81 144 1.7 7.8 0.00 0.00 0.00 38 1018.6
20260503194102 81 99 2.6 7.8 0.00 0.00 0.00 38 1018.6
20260503194004 81 113 2.6 7.8 0.00 0.00 0.00 37 1018.6
20260503193901 81 133 2.6 7.8 0.00 0.00 0.00 37 1018.6
20260503193802 81 28 3.5 8.7 0.00 0.00 0.00 38 1018.6
20260503193703 81 49 4.3 8.7 0.00 0.00 0.00 37 1018.8
20260503193602 81 97 4.3 8.7 0.00 0.00 0.00 38 1018.8
20260503193504 81 93 3.5 8.7 0.00 0.00 0.00 39 1018.8
20260503193403 81 90 3.5 8.7 0.00 0.00 0.00 39 1018.7
20260503193302 81 93 2.6 10.4 0.00 0.00 0.00 38 1018.8
20260503193202 81 158 3.5 10.4 0.00 0.00 0.00 37 1018.7
20260503193102 81 138 2.6 10.4 0.00 0.00 0.00 38 1018.8
20260503193002 81 131 3.5 10.4 0.00 0.00 0.00 38 1018.8
20260503192902 80 87 3.5 10.4 0.00 0.00 0.00 38 1018.8
20260503192802 80 213 2.6 10.4 0.00 0.00 0.00 37 1018.8
20260503192704 81 45 2.6 10.4 0.00 0.00 0.00 37 1018.9
20260503192602 80 73 4.3 10.4 0.00 0.00 0.00 38 1018.9
20260503192502 80 71 7.0 10.4 0.00 0.00 0.00 37 1019.0
20260503192403 81 78 7.0 10.4 0.00 0.00 0.00 37 1019.0
20260503192305 81 80 6.1 8.7 0.00 0.00 0.00 36 1019.0
20260503192202 81 89 5.2 8.7 0.00 0.00 0.00 38 1019.0
20260503192102 81 162 3.5 7.8 0.00 0.00 0.00 39 1019.0
20260503192004 81 185 1.7 7.8 0.00 0.00 0.00 37 1018.9
20260503191902 81 49 0.9 7.8 0.00 0.00 0.00 37 1019.0
20260503191802 81 78 2.6 8.7 0.00 0.00 0.00 37 1019.0
20260503191702 81 166 1.7 8.7 0.00 0.00 0.00 38 1019.0
20260503191603 81 189 0.9 8.7 0.00 0.00 0.00 37 1019.0
20260503191503 80 75 1.7 8.7 0.00 0.00 0.00 38 1019.1
20260503191402 80 13 3.5 8.7 0.00 0.00 0.00 37 1019.1
20260503191303 80 23 4.3 8.7 0.00 0.00 0.00 37 1019.1
20260503191203 80 35 4.3 8.7 0.00 0.00 0.00 37 1019.2
20260503191101 81 44 4.3 9.6 0.00 0.00 0.00 36 1019.2
20260503191004 81 52 5.2 9.6 0.00 0.00 0.00 36 1019.1
20260503190904 81 89 5.2 9.6 0.00 0.00 0.00 37 1019.2
20260503190803 81 87 2.6 9.6 0.00 0.00 0.00 37 1019.2
20260503190701 81 161 2.6 9.6 0.00 0.00 0.00 37 1019.2
20260503190601 80 16 3.5 9.6 0.00 0.00 0.00 37 1019.2
20260503190502 80 78 4.3 9.6 0.00 0.00 0.00 37 1019.2
20260503190403 80 102 5.2 9.6 0.00 0.00 0.00 36 1019.2
20260503190303 81 83 6.1 9.6 0.00 0.00 0.00 37 1019.2
20260503190203 81 82 6.1 9.6 0.00 0.00 0.00 37 1019.2
20260503190004 81 110 2.6 7.8 0.00 0.00 0.00 38 1019.1
20260503185903 81 62 1.7 7.8 0.00 0.00 0.00 37 1019.2
20260503185802 81 111 0.9 7.8 0.00 0.00 0.00 37 1019.2
20260503185702 80 125 2.6 7.8 0.00 0.00 0.00 37 1019.2
20260503185603 80 97 5.2 7.8 0.00 0.00 0.00 37 1019.3
20260503185502 81 63 5.2 7.8 0.00 0.00 0.00 38 1019.2
20260503185402 80 93 3.5 6.1 0.00 0.00 0.00 38 1019.2
20260503185304 80 31 3.5 6.1 0.00 0.00 0.00 39 1019.3
20260503185203 80 96 4.3 6.1 0.00 0.00 0.00 38 1019.3
20260503185103 80 93 5.2 6.1 0.00 0.00 0.00 38 1019.2
20260503185003 80 117 4.3 6.1 0.00 0.00 0.00 38 1019.3
20260503184903 81 120 4.3 6.1 0.00 0.00 0.00 39 1019.3
20260503184802 81 213 2.6 6.1 0.00 0.00 0.00 38 1019.3
20260503184703 80 250 1.7 6.1 0.00 0.00 0.00 39 1019.3
20260503184558 80 262 3.5 6.1 0.00 0.00 0.00 38 1019.3
20260503184457 80 316 4.3 7.8 0.00 0.00 0.00 37 1019.3
20260503184355 80 240 3.5 7.8 0.00 0.00 0.00 37 1019.3
20260503184256 80 285 2.6 7.8 0.00 0.00 0.00 37 1019.4
20260503184152 80 245 2.6 7.8 0.00 0.00 0.00 37 1019.4
20260503184051 80 224 2.6 7.8 0.00 0.00 0.00 38 1019.4
20260503183950 80 245 1.7 9.6 0.00 0.00 0.00 38 1019.4
20260503183848 79 303 2.6 9.6 0.00 0.00 0.00 37 1019.5
20260503183745 79 303 3.5 9.6 0.00 0.00 0.00 37 1019.5
20260503183645 80 298 3.5 11.3 0.00 0.00 0.00 36 1019.5
20260503183543 81 265 1.7 11.3 0.00 0.00 0.00 36 1019.6
20260503183442 80 47 2.6 11.3 0.00 0.00 0.00 37 1019.5
20260503183342 80 48 3.5 11.3 0.00 0.00 0.00 38 1019.6
20260503183240 80 82 3.5 13.0 0.00 0.00 0.00 38 1019.6
20260503183139 80 100 5.2 13.0 0.00 0.00 0.00 38 1019.5
20260503183036 80 83 6.1 13.0 0.00 0.00 0.00 37 1019.6
20260503182935 80 92 6.1 13.0 0.00 0.00 0.00 37 1019.6
20260503182833 80 123 7.8 13.0 0.00 0.00 0.00 37 1019.7
20260503182732 80 104 7.0 13.0 0.00 0.00 0.00 37 1019.7
20260503182630 81 106 7.0 13.0 0.00 0.00 0.00 38 1019.7
20260503182531 81 90 7.8 13.0 0.00 0.00 0.00 36 1019.7
20260503182433 81 82 8.7 13.0 0.00 0.00 0.00 37 1019.7
20260503182331 81 93 7.0 13.0 0.00 0.00 0.00 38 1019.7
20260503182230 81 78 5.2 9.6 0.00 0.00 0.00 37 1019.6
20260503182132 81 85 5.2 8.7 0.00 0.00 0.00 37 1019.7
20260503182032 81 90 3.5 6.1 0.00 0.00 0.00 39 1019.8
20260503181930 80 31 2.6 6.1 0.00 0.00 0.00 38 1019.8
20260503181828 80 61 2.6 6.1 0.00 0.00 0.00 37 1019.7
20260503181728 80 31 1.7 6.1 0.00 0.00 0.00 37 1019.8
20260503181624 80 63 1.7 8.7 0.00 0.00 0.00 37 1019.8
20260503181525 80 59 3.5 10.4 0.00 0.00 0.00 37 1019.8
20260503181422 80 68 4.3 10.4 0.00 0.00 0.00 37 1019.8
20260503181321 80 96 2.6 10.4 0.00 0.00 0.00 38 1019.9
20260503181221 80 255 0.9 10.4 0.00 0.00 0.00 38 1019.8
20260503181117 79 230 0.0 10.4 0.00 0.00 0.00 37 1019.9
20260503181017 79 234 0.0 10.4 0.00 0.00 0.00 36 1019.9
20260503180914 80 214 2.6 10.4 0.00 0.00 0.00 37 1019.9
20260503180813 80 83 3.5 10.4 0.00 0.00 0.00 37 1019.9
20260503180712 80 90 5.2 10.4 0.00 0.00 0.00 37 1019.9
20260503180610 79 0 5.2 10.4 0.00 0.00 0.00 38 1020.0
20260503180510 79 109 4.3 8.7 0.00 0.00 0.00 37 1019.9
20260503180409 80 85 6.1 8.7 0.00 0.00 0.00 37 1019.9
20260503180308 80 96 4.3 8.7 0.00 0.00 0.00 39 1020.0
20260503180205 80 31 2.6 7.8 0.00 0.00 0.00 37 1019.9
20260503180107 79 80 4.3 7.8 0.00 0.00 0.00 37 1020.0
20260503180004 80 109 5.2 7.8 0.00 0.00 0.00 37 1020.0
20260503175906 80 94 3.5 7.8 0.00 0.00 0.00 37 1020.1
20260503175805 80 117 1.7 6.1 0.00 0.00 0.00 38 1020.1
20260503175703 79 145 1.7 5.2 0.00 0.00 0.00 37 1020.0
20260503175605 79 128 2.6 5.2 0.00 0.00 0.00 39 1020.1
20260503175504 79 131 1.7 5.2 0.00 0.00 0.00 37 1020.1
20260503175404 79 110 2.6 5.2 0.00 0.00 0.00 38 1020.2
20260503175304 79 89 1.7 5.2 0.00 0.00 0.00 37 1020.2
20260503175205 79 66 1.7 5.2 0.00 0.00 0.00 37 1020.2
20260503175105 79 66 1.7 6.1 0.00 0.00 0.00 37 1020.2
20260503175004 79 66 2.6 6.1 0.00 0.00 0.00 37 1020.2
20260503174904 79 66 3.5 6.1 0.00 0.00 0.00 37 1020.3
20260503174804 79 85 3.5 6.1 0.00 0.00 0.00 37 1020.3
20260503174704 80 93 3.5 8.7 0.00 0.00 0.00 37 1020.4
20260503174604 80 82 2.6 8.7 0.00 0.00 0.00 38 1020.4
20260503174505 80 168 2.6 8.7 0.00 0.00 0.00 38 1020.4
20260503174404 80 168 2.6 8.7 0.00 0.00 0.00 38 1020.3
20260503174304 80 114 3.5 8.7 0.00 0.00 0.00 40 1020.5
20260503174204 79 128 5.2 8.7 0.00 0.00 0.00 39 1020.4
20260503174105 79 87 5.2 8.7 0.00 0.00 0.00 37 1020.5
20260503174003 80 89 4.3 8.7 0.00 0.00 0.00 39 1020.5
20260503173904 79 182 4.3 8.7 0.00 0.00 0.00 39 1020.5
20260503173803 79 186 3.5 8.7 0.00 0.00 0.00 40 1020.6
20260503173704 79 183 3.5 6.1 0.00 0.00 0.00 40 1020.6
20260503173603 78 190 2.6 6.1 0.00 0.00 0.00 40 1020.6
20260503173505 78 103 1.7 6.1 0.00 0.00 0.00 39 1020.6
20260503173404 79 238 1.7 6.1 0.00 0.00 0.00 39 1020.6
20260503173304 79 221 2.6 6.1 0.00 0.00 0.00 40 1020.6
20260503173204 79 107 3.5 6.1 0.00 0.00 0.00 39 1020.6
20260503173104 79 185 2.6 6.1 0.00 0.00 0.00 40 1020.6
20260503173004 79 210 1.7 6.1 0.00 0.00 0.00 40 1020.7
20260503172903 79 28 1.7 6.1 0.00 0.00 0.00 39 1020.7
20260503172804 79 28 1.7 6.1 0.00 0.00 0.00 39 1020.8
20260503172704 79 16 1.7 6.1 0.00 0.00 0.00 39 1020.7
20260503172604 79 66 1.7 6.1 0.00 0.00 0.00 39 1020.7
20260503172503 79 72 3.5 7.8 0.00 0.00 0.00 39 1020.8
20260503172404 79 113 3.5 7.8 0.00 0.00 0.00 40 1020.8
20260503172305 79 85 1.7 7.8 0.00 0.00 0.00 42 1020.8
20260503172202 79 144 1.7 7.8 0.00 0.00 0.00 42 1020.8
20260503172101 78 193 2.6 8.7 0.00 0.00 0.00 41 1020.8
20260503172003 78 207 2.6 8.7 0.00 0.00 0.00 41 1020.9
20260503171901 78 106 2.6 8.7 0.00 0.00 0.00 40 1020.9
20260503171800 78 89 3.5 8.7 0.00 0.00 0.00 40 1020.9
20260503171658 79 120 5.2 8.7 0.00 0.00 0.00 40 1020.9
20260503171553 79 114 6.1 8.7 0.00 0.00 0.00 40 1021.0
20260503171453 80 118 5.2 8.7 0.00 0.00 0.00 40 1020.9
20260503171354 80 113 4.3 8.7 0.00 0.00 0.00 42 1020.9
20260503171252 80 168 5.2 8.7 0.00 0.00 0.00 41 1020.8
20260503171151 80 144 5.2 8.7 0.00 0.00 0.00 42 1020.8
20260503171048 80 186 3.5 8.7 0.00 0.00 0.00 42 1020.9
20260503170946 80 62 2.6 8.7 0.00 0.00 0.00 41 1020.8
20260503170846 80 121 4.3 8.7 0.00 0.00 0.00 41 1020.9
20260503170744 80 117 3.5 8.7 0.00 0.00 0.00 40 1020.8
20260503170643 80 80 2.6 5.2 0.00 0.00 0.00 41 1020.8
20260503170541 80 82 1.7 3.5 0.00 0.00 0.00 42 1020.8
20260503170440 80 247 1.7 3.5 0.00 0.00 0.00 41 1020.9
20260503170339 80 219 0.9 4.3 0.00 0.00 0.00 40 1020.8
20260503170238 80 11 0.0 4.3 0.00 0.00 0.00 39 1020.9
20260503170136 80 11 0.0 4.3 0.00 0.00 0.00 40 1020.9
20260503160159 77 96 0.9 7.8 0.00 0.00 0.00 42 1021.1
20260503151009 75 207 3.5 8.7 0.00 0.00 0.00 52 1020.9
20260503150906 75 189 3.5 8.7 0.00 0.00 0.00 52 1020.9
20260503150804 75 199 4.3 8.7 0.00 0.00 0.00 51 1020.9
20260503150703 75 182 3.5 9.6 0.00 0.00 0.00 54 1020.9
20260503150603 75 154 1.7 9.6 0.00 0.00 0.00 55 1020.8
20260503150502 74 169 2.6 9.6 0.00 0.00 0.00 54 1020.8
20260503150403 74 203 3.5 9.6 0.00 0.00 0.00 53 1020.8
20260503150303 74 145 4.3 9.6 0.00 0.00 0.00 53 1020.8
20260503150202 74 189 2.6 9.6 0.00 0.00 0.00 55 1020.8
20260503140302 69 56 0.0 2.6 0.00 0.00 0.00 70 1020.7
20260503140200 69 51 0.0 1.7 0.00 0.00 0.00 71 1020.7
20260503131358 64 13 0.0 2.6 0.00 0.00 0.00 83 1020.5
20260503131258 63 13 0.0 2.6 0.00 0.00 0.00 83 1020.5
20260503131157 63 13 0.0 2.6 0.00 0.00 0.00 84 1020.4
20260503131058 63 13 0.9 2.6 0.00 0.00 0.00 84 1020.5
20260503130958 63 13 0.9 2.6 0.00 0.00 0.00 85 1020.4
20260503130859 63 13 0.9 2.6 0.00 0.00 0.00 85 1020.4
20260503130758 62 13 0.9 2.6 0.00 0.00 0.00 85 1020.4
20260503130658 62 13 0.9 2.6 0.00 0.00 0.00 85 1020.5
20260503130557 62 13 1.7 2.6 0.00 0.00 0.00 86 1020.4
20260503130458 62 13 1.7 2.6 0.00 0.00 0.00 86 1020.3
20260503130359 62 13 1.7 2.6 0.00 0.00 0.00 87 1020.4
20260503130258 62 13 0.9 2.6 0.00 0.00 0.00 87 1020.4
20260503130157 62 13 0.9 2.6 0.00 0.00 0.00 87 1020.3
20260503120157 56 13 0.0 0.0 0.00 0.00 0.00 93 1019.9
20260503110754 56 11 0.0 1.7 0.00 0.00 0.00 92 1019.4
20260503110654 56 11 0.0 1.7 0.00 0.00 0.00 92 1019.4
20260503110556 56 11 0.0 1.7 0.00 0.00 0.00 92 1019.5
20260503110456 56 11 0.9 1.7 0.00 0.00 0.00 92 1019.5
20260503110355 56 11 0.9 1.7 0.00 0.00 0.00 92 1019.4
20260503110255 56 11 0.9 1.7 0.00 0.00 0.00 92 1019.5
20260503110154 56 7 0.0 0.0 0.00 0.00 0.00 92 1019.5
20260503100257 56 7 0.0 0.0 0.00 0.00 0.00 91 1019.1
20260503100156 56 7 0.0 0.0 0.00 0.00 0.00 91 1019.0
20260503090454 57 8 0.0 0.0 0.00 0.00 0.00 89 1018.8
20260503090352 57 7 0.0 0.0 0.00 0.00 0.00 89 1018.9
20260503090251 57 7 0.0 0.0 0.00 0.00 0.00 89 1018.9
20260503090152 57 7 0.0 0.0 0.00 0.00 0.00 90 1018.9
20260503081550 58 7 0.0 0.0 0.00 0.00 0.00 87 1018.9
20260503081450 59 7 0.0 0.0 0.00 0.00 0.00 87 1019.1
20260503081350 59 7 0.0 0.0 0.00 0.00 0.00 88 1019.1
20260503081252 59 7 0.0 0.0 0.00 0.00 0.00 87 1019.0
20260503081151 59 7 0.0 0.0 0.00 0.00 0.00 87 1019.1
20260503081050 59 7 0.0 0.0 0.00 0.00 0.00 87 1019.1
20260503080951 59 7 0.0 0.0 0.00 0.00 0.00 87 1019.1
20260503080852 59 7 0.0 0.0 0.00 0.00 0.00 87 1019.1
20260503080750 59 7 0.0 0.0 0.00 0.00 0.00 87 1019.1
20260503080651 59 7 0.0 0.0 0.00 0.00 0.00 86 1019.1
20260503080551 59 7 0.0 0.0 0.00 0.00 0.00 87 1019.0
20260503080451 59 7 0.0 0.0 0.00 0.00 0.00 87 1019.0
20260503080350 59 7 0.0 0.0 0.00 0.00 0.00 87 1019.0
20260503080250 59 7 0.0 0.0 0.00 0.00 0.00 87 1019.0
20260503080150 59 7 0.0 0.0 0.00 0.00 0.00 87 1019.0
20260503072924 60 7 0.0 0.0 0.00 0.00 0.00 84 1018.9
20260503072823 60 7 0.0 0.0 0.00 0.00 0.00 84 1018.9
20260503072720 60 7 0.0 0.0 0.00 0.00 0.00 84 1018.9
20260503072617 60 7 0.0 0.0 0.00 0.00 0.00 84 1018.8
20260503072516 60 7 0.0 0.0 0.00 0.00 0.00 85 1018.9
20260503072414 60 7 0.0 0.0 0.00 0.00 0.00 84 1018.9
20260503072314 60 7 0.0 0.0 0.00 0.00 0.00 84 1018.9
20260503072212 60 7 0.0 0.0 0.00 0.00 0.00 84 1018.9
20260503072111 60 7 0.0 0.0 0.00 0.00 0.00 85 1019.0
20260503072010 60 7 0.0 0.0 0.00 0.00 0.00 85 1019.0
20260503071909 60 7 0.0 0.0 0.00 0.00 0.00 85 1018.9
20260503071806 60 7 0.0 0.0 0.00 0.00 0.00 85 1018.9
20260503071702 60 7 0.0 0.0 0.00 0.00 0.00 85 1018.9
20260503071605 59 7 0.0 0.0 0.00 0.00 0.00 85 1019.0
20260503071505 59 7 0.0 0.0 0.00 0.00 0.00 86 1019.0
20260503071402 59 7 0.0 0.0 0.00 0.00 0.00 86 1019.0
20260503071303 59 7 0.0 0.0 0.00 0.00 0.00 86 1018.9
20260503071204 59 7 0.0 0.0 0.00 0.00 0.00 86 1019.0
20260503071102 59 7 0.0 0.0 0.00 0.00 0.00 85 1019.0
20260503071002 59 7 0.0 0.0 0.00 0.00 0.00 85 1019.0
20260503070904 60 7 0.0 0.0 0.00 0.00 0.00 85 1019.0
20260503070802 60 7 0.0 0.0 0.00 0.00 0.00 86 1019.0
20260503070702 59 7 0.0 0.0 0.00 0.00 0.00 86 1019.0
20260503070604 60 7 0.0 0.0 0.00 0.00 0.00 86 1019.1
20260503070504 59 7 0.0 0.0 0.00 0.00 0.00 86 1019.0
20260503070402 59 7 0.0 0.0 0.00 0.00 0.00 86 1019.1
20260503070302 59 7 0.0 0.0 0.00 0.00 0.00 86 1019.1
20260503070204 59 7 0.0 0.0 0.00 0.00 0.00 86 1019.0
20260503060303 60 8 0.0 0.0 0.00 0.00 0.00 84 1019.1
20260503060204 60 8 0.0 0.0 0.00 0.00 0.00 84 1019.1
20260503055102 60 8 0.0 1.7 0.00 0.00 0.00 84 1019.3
20260503055004 60 8 0.0 1.7 0.00 0.00 0.00 84 1019.3
20260503054902 61 8 0.0 1.7 0.00 0.00 0.00 84 1019.3
20260503054802 61 8 0.9 1.7 0.00 0.00 0.00 84 1019.3
20260503054703 61 8 0.9 1.7 0.00 0.00 0.00 84 1019.2
20260503054602 61 8 0.9 1.7 0.00 0.00 0.00 83 1019.2
20260503054502 61 8 0.9 1.7 0.00 0.00 0.00 84 1019.2
20260503054403 61 8 1.7 1.7 0.00 0.00 0.00 83 1019.2
20260503054303 61 8 0.9 1.7 0.00 0.00 0.00 84 1019.1
20260503054202 61 8 0.9 1.7 0.00 0.00 0.00 84 1019.2
20260503054103 61 8 0.9 1.7 0.00 0.00 0.00 84 1019.1
20260503054005 61 8 1.7 1.7 0.00 0.00 0.00 83 1019.0
20260503053902 61 8 0.9 1.7 0.00 0.00 0.00 83 1019.1
20260503053804 61 8 0.0 0.0 0.00 0.00 0.00 83 1019.0
20260503053704 61 8 0.0 0.0 0.00 0.00 0.00 83 1019.0
20260503053603 61 8 0.0 0.0 0.00 0.00 0.00 84 1019.0
20260503053503 61 8 0.0 0.0 0.00 0.00 0.00 84 1018.9
20260503053403 61 8 0.0 0.0 0.00 0.00 0.00 83 1019.0
20260503053303 61 8 0.0 0.0 0.00 0.00 0.00 84 1019.0
20260503053202 61 8 0.0 0.0 0.00 0.00 0.00 84 1018.9
20260503053102 61 8 0.0 0.0 0.00 0.00 0.00 84 1018.9
20260503053003 61 8 0.0 0.9 0.00 0.00 0.00 84 1018.9
20260503052902 61 8 0.0 0.9 0.00 0.00 0.00 84 1018.9
20260503052802 61 8 0.0 1.7 0.00 0.00 0.00 84 1018.9
20260503052702 61 8 0.0 1.7 0.00 0.00 0.00 84 1018.9
20260503052602 61 8 0.0 1.7 0.00 0.00 0.00 84 1018.9
20260503052502 61 8 0.0 1.7 0.00 0.00 0.00 84 1018.9
20260503052403 61 8 0.0 1.7 0.00 0.00 0.00 84 1019.0
20260503052305 61 8 0.0 1.7 0.00 0.00 0.00 84 1019.0
20260503052203 61 8 0.0 1.7 0.00 0.00 0.00 84 1019.0
20260503052102 61 8 0.9 1.7 0.00 0.00 0.00 84 1019.0
20260503052002 61 8 0.9 1.7 0.00 0.00 0.00 84 1019.0
20260503051904 61 8 1.7 1.7 0.00 0.00 0.00 84 1019.0
20260503051802 61 8 0.9 1.7 0.00 0.00 0.00 84 1019.0
20260503051702 61 8 0.9 1.7 0.00 0.00 0.00 83 1018.9
20260503051603 61 8 0.9 1.7 0.00 0.00 0.00 83 1019.0
20260503051502 61 8 0.9 1.7 0.00 0.00 0.00 83 1019.0
20260503051403 61 8 0.9 1.7 0.00 0.00 0.00 83 1019.0
20260503051302 61 8 0.9 1.7 0.00 0.00 0.00 83 1019.0
20260503051203 61 8 0.0 0.0 0.00 0.00 0.00 82 1019.0
20260503051103 61 8 0.0 0.0 0.00 0.00 0.00 82 1019.0
20260503050948 61 8 0.0 0.0 0.00 0.00 0.00 82 1019.0
20260503050847 61 8 0.0 0.0 0.00 0.00 0.00 82 1019.1
20260503050746 61 8 0.0 0.0 0.00 0.00 0.00 82 1018.9
20260503050646 61 8 0.0 0.0 0.00 0.00 0.00 81 1018.9
20260503050548 62 8 0.0 0.0 0.00 0.00 0.00 82 1018.9
20260503050448 62 8 0.0 0.0 0.00 0.00 0.00 82 1018.9
20260503050346 62 8 0.0 0.0 0.00 0.00 0.00 82 1018.9
20260503050246 62 8 0.0 0.0 0.00 0.00 0.00 81 1018.9
20260503050148 62 8 0.0 0.0 0.00 0.00 0.00 81 1018.9
20260503050046 62 8 0.0 0.0 0.00 0.00 0.00 81 1018.9
20260503045946 62 8 0.0 0.0 0.00 0.00 0.00 81 1018.8
20260503045847 62 8 0.0 0.0 0.00 0.00 0.00 81 1018.9
20260503045747 62 8 0.0 0.0 0.00 0.00 0.00 81 1018.9
20260503045647 62 8 0.0 0.0 0.00 0.00 0.00 81 1018.9
20260503045546 62 8 0.0 0.0 0.00 0.00 0.00 81 1018.9
20260503045444 62 8 0.0 0.0 0.00 0.00 0.00 80 1018.8
20260503045341 62 8 0.0 0.0 0.00 0.00 0.00 80 1018.9
20260503045239 62 8 0.0 0.0 0.00 0.00 0.00 80 1018.8
20260503045137 62 8 0.0 0.0 0.00 0.00 0.00 80 1018.8
20260503045037 62 8 0.0 0.0 0.00 0.00 0.00 80 1018.8
20260503044934 62 8 0.0 0.0 0.00 0.00 0.00 79 1018.7
20260503044833 62 8 0.0 0.0 0.00 0.00 0.00 79 1018.8
20260503044732 62 8 0.0 0.0 0.00 0.00 0.00 79 1018.7
20260503044631 62 8 0.0 0.0 0.00 0.00 0.00 78 1018.7
20260503044532 62 8 0.0 0.0 0.00 0.00 0.00 78 1018.8
20260503044431 62 8 0.0 0.0 0.00 0.00 0.00 78 1018.7
20260503044332 62 8 0.0 0.0 0.00 0.00 0.00 78 1018.7
20260503044231 62 8 0.0 0.0 0.00 0.00 0.00 79 1018.7
20260503044133 62 8 0.0 0.0 0.00 0.00 0.00 79 1018.7
20260503044033 62 8 0.0 0.0 0.00 0.00 0.00 79 1018.7
20260503043930 62 8 0.0 0.0 0.00 0.00 0.00 78 1018.7
20260503043831 62 8 0.0 0.0 0.00 0.00 0.00 78 1018.7
20260503043731 62 8 0.0 0.0 0.00 0.00 0.00 78 1018.7
20260503043631 62 8 0.0 0.0 0.00 0.00 0.00 79 1018.6
20260503043531 62 8 0.0 0.0 0.00 0.00 0.00 78 1018.6
20260503043432 62 8 0.0 0.0 0.00 0.00 0.00 78 1018.6
20260503043331 62 8 0.0 0.0 0.00 0.00 0.00 78 1018.6
20260503043231 62 8 0.0 0.0 0.00 0.00 0.00 78 1018.6
20260503043133 62 8 0.0 0.0 0.00 0.00 0.00 78 1018.7
20260503043031 62 8 0.0 0.9 0.00 0.00 0.00 77 1018.7
20260503042931 62 8 0.0 0.9 0.00 0.00 0.00 77 1018.7
20260503042830 63 8 0.0 0.9 0.00 0.00 0.00 76 1018.6
20260503042732 63 8 0.0 0.9 0.00 0.00 0.00 76 1018.7
20260503042631 63 8 0.0 0.9 0.00 0.00 0.00 75 1018.6
20260503042531 63 8 0.0 0.9 0.00 0.00 0.00 75 1018.7
20260503042433 63 8 0.0 0.9 0.00 0.00 0.00 74 1018.7
20260503042332 64 8 0.0 0.9 0.00 0.00 0.00 74 1018.7
20260503042232 64 8 0.0 0.9 0.00 0.00 0.00 73 1018.7
20260503042132 64 8 0.0 0.9 0.00 0.00 0.00 72 1018.7
20260503042032 64 8 0.0 0.0 0.00 0.00 0.00 73 1018.7
20260503041929 64 8 0.0 0.0 0.00 0.00 0.00 73 1018.7
20260503041828 64 8 0.0 0.0 0.00 0.00 0.00 73 1018.8
20260503041727 64 8 0.0 0.0 0.00 0.00 0.00 74 1018.8
20260503041626 63 8 0.0 0.0 0.00 0.00 0.00 74 1018.8
20260503041524 63 8 0.0 0.0 0.00 0.00 0.00 74 1018.8
20260503041422 63 8 0.0 0.0 0.00 0.00 0.00 75 1018.8
20260503041321 63 8 0.0 0.0 0.00 0.00 0.00 75 1018.8
20260503041220 63 8 0.0 0.0 0.00 0.00 0.00 76 1018.9
20260503041118 63 8 0.0 0.0 0.00 0.00 0.00 76 1018.8
20260503041017 63 8 0.0 0.0 0.00 0.00 0.00 76 1018.8
20260503040914 62 8 0.0 0.0 0.00 0.00 0.00 76 1018.9
20260503040814 63 8 0.0 0.0 0.00 0.00 0.00 76 1018.8
20260503040712 63 8 0.0 0.0 0.00 0.00 0.00 76 1018.8
20260503040610 63 8 0.0 0.0 0.00 0.00 0.00 76 1018.8
20260503040510 63 8 0.0 0.0 0.00 0.00 0.00 74 1018.9